Torna al catalogo

OPS 5721

AttivoMilitareSSO
NORAD 9415·PAYLOAD·🇺🇸 United States

Lanciato Sep 11, 1976 da Vandenberg Space Force Base

Loading…

Prossimi Passaggi (prossime 24 ore)

TLE

AggiornatoSource: Space-Track

Epoca: Sep 14, 2026, 09:57 UTC

1 09415U 76091A   26257.41524236  .00000092  00000-0  53934-4 0  9990
2 09415  98.3713  44.6219 0017126 359.7535   0.3635 14.27887463365249

Traccia OPS 5721 in tempo reale con AllMySat

Download on the App Store